GFSMW_850_temp_090.txt.gz
Temp
18 17 17 17 16 16 16 16 15 15 16 15 15 15 15 15 15 15 15 15 15 15 15 15 15 15 15 14 14 14 14 14 14 13 13 13 14 14 13 13 13 13 13
18 17 16 15 16 16 16 16 16 15 15 15 16 16 15 16 16 15 15 15 15 15 15 15 15 15 14 14 14 14 14 14 13 13 12 12 14 13 13 13 13 13 12
16 16 15 15 15 15 16 16 16 16 16 16 16 16 15 16 15 16 16 16 16 16 15 15 15 15 14 14 14 14 14 13 13 13 12 12 12 13 12 12 12 12 12
16 16 15 15 15 16 16 16 16 16 16 17 15 15 16 16 16 16 16 15 15 15 15 15 15 15 14 14 14 14 14 13 13 13 13 12 12 12 11 11 11 11 11
15 15 15 16 15 16 16 17 16 16 16 16 15 16 16 16 16 16 16 15 15 15 15 15 15 15 15 15 14 14 14 14 13 13 12 12 12 11 11 10 10 11 10
15 15 14 15 15 15 16 16 16 16 16 16 16 16 16 16 16 16 15 15 15 15 15 14 15 15 15 15 14 14 14 13 13 13 12 12 11 11 11 10 10 9 10
15 15 15 15 16 15 15 16 17 17 17 16 16 16 16 15 15 15 15 15 15 15 15 15 15 15 14 14 14 13 13 13 13 12 12 11 11 10 10 10 9 9 9
14 14 15 14 15 15 14 15 16 16 15 15 15 14 14 15 15 15 15 15 15 15 15 14 14 14 14 14 13 13 13 12 12 12 11 11 11 10 10 10 9 8 8
12 13 13 13 14 14 15 15 16 15 14 14 14 15 15 15 15 14 14 14 14 14 13 13 13 13 13 13 13 12 11 12 12 11 11 11 11 10 9 9 8 8 8
11 11 11 11 12 13 13 14 13 13 13 13 13 13 14 13 13 13 13 13 13 12 12 12 12 12 12 12 12 12 10 11 11 10 10 10 10 9 9 8 8 8 6
10 10 10 9 9 11 12 12 11 12 12 12 12 12 12 12 12 12 12 11 11 11 11 12 11 11 11 10 9 10 10 10 9 10 9 9 9 9 8 8 8 7 6
8 8 8 8 9 10 11 10 10 11 11 10 11 11 10 10 10 10 11 11 10 10 10 10 10 10 9 8 8 9 9 9 9 9 8 8 8 8 8 7 7 6 5
7 7 7 7 9 10 10 10 10 10 10 10 9 9 9 9 9 9 9 9 9 9 9 9 8 8 8 7 7 7 7 8 8 8 8 8 8 8 7 6 5 5 4
7 7 7 7 8 9 9 9 9 9 9 9 9 9 9 9 9 8 7 7 7 7 7 7 7 7 7 7 7 7 7 7 7 7 7 7 7 6 5 5 5 4 4
7 7 7 8 9 9 9 9 9 8 9 8 8 8 8 8 7 7 7 6 6 6 6 6 6 6 6 6 6 6 6 6 6 6 6 5 5 5 4 4 4 4 3
7 7 8 9 9 9 9 9 9 8 8 8 8 7 7 7 7 6 6 6 5 5 5 5 5 5 5 5 5 5 5 5 5 5 5 4 4 4 4 4 4 3 2
8 8 9 9 10 9 9 8 8 8 7 7 7 7 6 6 6 5 5 5 4 3 4 4 4 4 4 4 4 4 4 3 3 3 3 3 3 3 3 3 2 2 2
8 8 9 10 9 9 8 8 7 7 7 7 6 6 6 5 5 5 5 4 2 2 1 2 3 3 3 3 2 3 2 2 2 3 3 2 3 3 2 1 1 1 1
9 9 10 10 9 9 9 8 7 7 7 6 6 5 5 5 4 4 4 2 1 1 1 1 2 2 1 1 1 2 2 2 2 2 2 2 2 2 1 1 1 0 -0
9 10 10 9 9 9 9 8 8 7 7 6 6 5 4 4 3 3 2 0 0 -0 -0 -1 -0 -0 0 -0 0 1 1 2 2 2 1 1 1 1 1 0 -0 -0 -0
9 10 10 10 9 9 8 8 7 7 6 5 4 4 4 3 2 2 1 0 0 -1 -2 -2 -2 -1 -1 -0 0 1 1 1 1 1 1 1 1 1 0 -0 -0 -1 -1
8 9 9 9 9 8 8 7 7 6 5 4 4 3 2 2 2 1 1 -0 -1 -1 -2 -2 -2 -1 -0 0 0 0 -0 0 0 0 0 0 0 0 -0 -1 -1 -1 -1
7 8 8 8 8 7 7 6 5 5 4 4 3 2 2 1 1 1 -0 -1 -1 -2 -2 -2 -2 -1 -0 -0 0 -0 -0 -0 -0 -0 -0 -0 -0 -0 -1 -1 -1 -1 -2
7 7 7 6 6 6 6 5 5 4 3 3 2 2 2 1 1 0 -0 -1 -1 -2 -2 -2 -1 -1 -1 -0 -0 -0 -0 -0 -0 -0 -0 -0 -0 -1 -1 -1 -2 -2 -2
6 6 6 6 5 5 5 5 4 4 3 2 2 1 1 1 0 -0 -0 -1 -1 -2 -2 -1 -1 -0 -0 0 -1 -1 -0 -1 -1 -1 -1 -1 -1 -1 -1 -1 -1 -2 -2
6 6 6 5 4 4 4 4 3 3 2 2 1 1 1 0 -0 -1 -1 -2 -2 -2 -2 -2 -2 -1 -1 -1 -0 -1 -1 -1 -1 -1 -1 -1 -1 -1 -1 -1 -2 -2 -2

GFSMW_850_temp_093.txt.gz
Temp
19 18 16 18 18 17 15 15 15 15 15 15 15 15 15 14 14 14 14 14 14 13 13 13 13 13 13 13 13 13 14 14 14 14 14 14 14 14 13 13 12 12 12
19 19 17 15 18 17 16 16 15 15 16 15 15 15 15 15 15 15 15 15 14 14 14 14 14 13 13 13 13 13 14 14 13 13 12 13 14 13 13 13 13 12 12
18 19 17 15 17 17 16 16 15 15 16 16 15 14 14 15 15 15 15 15 15 15 15 15 15 14 14 14 14 14 14 14 13 13 13 12 13 13 13 13 12 12 12
18 19 17 15 15 16 16 16 15 15 15 15 15 15 15 15 15 15 14 15 15 15 15 15 15 15 15 15 14 14 14 14 13 12 13 13 12 12 13 12 12 12 11
17 18 17 14 15 15 15 15 16 15 15 15 15 15 15 14 14 14 14 15 15 15 15 14 15 15 15 15 14 14 14 14 13 13 12 13 12 12 12 12 12 11 11
17 18 16 14 13 15 15 15 16 15 15 15 15 13 14 15 14 14 14 14 15 15 15 15 15 15 15 15 14 14 14 13 13 13 12 12 12 11 11 11 10 10 10
17 17 17 14 14 15 15 15 16 16 15 15 15 15 14 14 13 14 12 13 14 15 16 15 15 15 14 14 14 14 13 13 13 13 12 12 12 11 10 10 10 9 9
17 16 16 16 14 15 15 15 15 15 16 16 16 15 15 15 15 15 14 15 15 15 15 14 14 14 14 14 13 12 12 12 12 12 12 12 11 11 11 10 9 9 9
16 16 16 16 15 14 14 15 15 15 15 15 16 16 15 15 15 15 16 15 15 14 14 14 13 13 13 13 13 12 11 12 12 11 11 11 11 10 11 10 9 8 8
15 14 15 15 14 12 13 14 14 14 14 14 13 13 14 14 13 13 13 13 14 13 13 13 12 12 12 12 12 12 11 10 10 11 10 10 10 10 10 10 9 8 7
14 14 13 13 12 10 12 13 13 14 13 14 13 12 13 12 12 12 12 12 12 11 11 11 11 11 11 11 11 11 10 9 9 9 10 10 9 9 9 9 9 8 7
12 12 12 11 10 9 9 10 11 11 12 12 12 11 11 11 11 11 11 11 11 10 10 10 10 10 10 10 10 9 9 9 9 9 9 8 9 9 9 8 8 7 6
10 10 10 9 8 8 7 8 10 11 11 11 11 11 10 10 10 10 10 10 9 9 9 9 9 8 8 8 8 8 8 8 8 8 8 8 7 7 7 7 6 6 5
9 10 9 9 9 8 7 8 9 10 10 10 10 10 10 9 9 9 9 9 9 8 8 8 7 7 7 7 7 7 7 7 7 7 7 7 7 7 7 6 6 5 4
10 9 9 9 8 7 7 8 10 10 9 9 9 9 9 9 9 9 8 8 8 7 7 7 6 6 6 6 7 7 6 6 6 6 6 6 6 6 6 5 5 4 3
10 9 9 9 8 8 8 9 9 9 9 9 9 9 8 8 8 8 8 7 6 6 6 5 6 5 5 6 5 5 5 5 6 6 6 6 6 5 5 4 4 4 3
10 9 9 9 8 8 7 9 9 9 9 8 8 8 8 8 7 7 7 6 6 6 5 5 4 5 5 5 5 5 4 4 4 4 4 4 4 3 3 3 3 3 3
10 10 9 9 8 8 8 8 9 9 8 8 8 7 7 7 7 6 6 6 5 5 4 3 3 3 3 3 4 3 3 3 3 3 3 3 3 2 2 3 3 3 2
11 10 9 9 8 9 9 9 9 8 8 8 8 7 6 6 6 5 5 4 4 4 1 1 1 2 2 2 2 2 2 1 1 1 1 2 2 2 2 2 2 2 2
9 10 9 9 8 8 9 9 8 8 8 7 7 6 6 5 5 4 4 3 3 2 1 1 -0 0 0 0 0 0 1 1 1 1 2 2 2 1 1 2 1 1 1
8 8 8 8 8 7 9 8 8 8 7 7 6 6 5 4 4 3 3 3 2 1 0 -0 -1 -1 -1 -1 -1 -1 -0 0 1 1 1 1 1 0 1 1 1 -0 0
8 8 9 9 9 9 8 7 7 7 7 6 5 5 4 4 3 3 2 2 1 0 -1 -1 -2 -2 -2 -1 -0 -0 -0 0 -0 -0 0 0 0 0 1 0 -0 -1 -1
7 7 8 8 8 8 7 7 7 6 6 5 5 4 4 3 3 2 2 1 0 -0 -1 -2 -2 -2 -1 -1 0 -0 -0 -1 -0 -1 -1 0 0 0 0 -0 -1 -1 -1
7 7 7 6 6 6 6 6 6 6 5 5 4 3 3 3 2 2 2 1 0 -0 -1 -2 -2 -2 -1 -1 -0 -0 -1 -1 -1 -1 -1 0 -0 -0 -1 -0 -1 -1 -1
6 6 6 6 6 6 6 6 5 5 4 4 3 3 2 2 1 1 1 0 0 -1 -1 -2 -2 -2 -1 -0 -1 -1 -1 -1 -1 -1 -0 -0 -1 -1 -1 -1 -1 -1 -1
5 5 5 5 5 5 6 5 4 4 4 3 2 2 2 1 1 1 0 -0 -0 -1 -2 -3 -2 -2 -1 -1 -1 -2 -2 -2 -1 -1 -1 -1 -1 -1 -1 -1 -1 -1 -1

GFSMW_850_temp_099.txt.gz
Temp
18 17 18 18 17 16 16 16 16 16 15 15 15 15 15 15 14 15 15 15 15 15 15 14 14 14 14 14 14 14 13 13 13 13 14 14 14 14 14 13 13 12 12
17 17 18 18 17 16 16 16 16 16 16 15 15 15 15 15 15 15 15 14 14 14 14 14 14 13 13 13 14 14 13 13 13 14 13 13 14 14 14 13 12 12 12
18 17 17 18 18 16 16 16 17 16 16 16 16 15 15 14 14 14 14 14 14 14 14 13 14 13 13 13 14 14 13 14 14 14 13 13 13 13 14 13 12 12 12
18 17 17 17 18 17 16 16 16 16 16 16 16 15 15 15 15 15 14 13 13 14 13 13 13 13 13 13 13 13 13 13 13 13 13 12 12 12 13 12 12 12 12
17 18 17 18 17 17 16 16 15 16 16 15 15 15 15 14 14 13 13 14 13 13 13 13 13 13 13 13 13 13 13 13 13 13 12 12 13 12 11 12 12 12 11
17 17 17 17 17 16 16 15 14 15 15 15 15 14 14 14 14 13 12 13 13 13 13 13 13 12 12 12 12 12 12 12 13 13 13 12 13 12 12 11 11 10 10
17 17 16 16 16 16 16 15 15 15 15 14 14 14 14 13 14 14 14 13 13 13 12 12 12 12 12 13 13 12 12 13 14 14 13 12 12 11 11 11 11 11 10
17 17 16 16 16 16 16 15 16 15 14 14 14 14 14 14 14 14 14 14 14 14 15 14 12 12 13 13 13 12 13 13 14 14 14 12 12 11 11 11 10 10 9
17 17 16 15 16 16 15 16 15 15 14 14 14 14 14 14 13 13 13 13 14 13 13 12 11 13 12 13 13 12 12 13 13 13 12 11 11 11 11 11 10 10 9
16 16 16 15 15 15 15 15 15 15 15 14 14 14 14 14 14 14 13 13 12 12 12 12 12 12 12 13 12 12 12 13 12 11 10 10 10 10 10 10 10 9 9
15 15 15 15 15 15 15 15 14 14 14 14 15 14 14 14 13 13 13 12 12 12 12 12 12 12 12 12 12 12 12 12 12 10 9 9 9 10 9 9 9 9 9
14 15 14 14 14 14 14 14 14 13 13 13 13 13 13 13 14 13 13 13 12 11 11 11 11 11 11 11 11 10 11 11 11 9 8 8 8 9 9 9 9 9 8
13 13 13 13 13 13 13 13 12 12 12 12 12 11 12 12 13 13 13 12 11 11 11 11 10 10 9 9 10 9 9 9 8 8 7 8 8 8 8 8 8 8 8
11 12 11 11 11 11 11 11 10 10 10 10 10 10 10 11 12 12 12 11 10 10 9 9 10 9 9 8 8 8 8 7 6 6 7 7 7 7 7 7 7 6 7
10 10 10 10 10 9 9 9 9 9 9 9 9 9 10 10 11 11 10 9 9 9 9 9 9 8 8 8 7 7 7 6 5 5 5 5 5 5 5 5 6 6 6
10 10 9 9 9 9 9 9 8 8 9 9 9 9 9 10 10 9 9 9 9 9 8 8 7 7 7 7 6 6 6 5 5 5 4 4 5 5 5 5 5 5 5
10 9 9 9 8 8 8 9 9 8 9 9 9 9 9 9 9 8 8 8 8 8 7 7 7 7 7 7 6 5 5 4 4 4 4 4 4 5 5 5 4 4 4
10 9 9 9 9 8 8 8 8 8 9 9 8 8 8 8 8 8 7 7 7 7 6 6 6 6 6 6 6 4 4 4 3 3 3 3 3 3 3 3 2 2 2
10 10 9 9 9 8 8 8 8 8 8 8 8 8 8 8 7 7 7 6 6 6 6 5 5 5 5 5 4 3 2 1 1 1 1 1 2 2 2 2 1 1 2
9 10 9 9 9 8 8 8 8 8 8 8 8 7 7 7 6 6 6 5 5 5 5 4 4 4 3 1 2 1 -0 0 0 0 0 1 0 0 1 1 1 1 2
8 9 9 9 9 8 8 8 8 8 7 7 7 7 6 6 6 6 5 4 4 4 3 3 3 2 1 -0 -0 -0 -1 -1 -1 -1 -0 -1 -1 -0 1 1 1 0 1
7 7 8 8 8 7 7 7 7 7 6 6 6 6 5 5 5 5 4 4 3 3 3 2 1 1 0 -1 -1 -2 -2 -2 -2 -2 -1 -1 -0 -1 -0 -0 0 0 -0
6 7 7 7 7 7 6 6 6 6 6 6 6 5 5 5 5 5 4 3 2 2 2 1 0 -1 -1 -1 -1 -2 -2 -2 -2 -1 -1 -2 -1 -1 -1 -0 -1 -1 -0
6 6 6 6 6 6 6 6 5 5 6 5 5 5 5 5 4 4 3 2 2 2 1 1 -0 -0 -1 -1 -2 -2 -2 -2 -1 -1 -2 -2 -2 -1 -1 -2 -1 -1 -1
5 5 5 5 5 5 5 5 5 5 5 5 4 4 4 4 3 3 2 2 2 1 1 0 -0 -1 -1 -1 -2 -2 -3 -2 -2 -2 -2 -2 -1 -1 -2 -2 -2 -1 -1
4 4 4 4 4 4 4 4 4 4 4 4 4 4 3 3 2 2 2 2 1 0 -0 -0 -0 -1 -2 -2 -2 -3 -2 -2 -2 -2 -2 -2 -1 -2 -2 -2 -1 -1 -2

GFSMW_850_temp_102.txt.gz
Temp
17 17 16 16 16 16 16 16 16 16 17 17 15 15 15 15 15 15 14 14 15 15 14 15 14 14 14 14 14 13 13 14 13 13 13 14 14 14 14 13 13 12 12
15 17 17 17 16 16 16 16 16 16 16 16 16 16 15 15 15 14 14 14 14 14 14 14 14 14 14 14 13 13 14 13 13 13 13 13 14 15 14 13 13 12 12
16 17 17 17 17 17 16 16 16 16 16 16 16 16 15 15 15 15 15 14 14 14 14 14 13 13 14 15 15 14 14 14 13 13 12 12 13 13 14 14 12 12 12
16 17 17 17 17 17 17 17 17 16 16 16 16 16 16 16 15 15 14 14 14 14 13 13 14 13 13 13 14 13 14 13 13 12 12 12 12 11 12 12 13 11 11
16 17 17 17 18 17 17 17 16 16 16 16 16 16 15 15 15 15 14 14 13 13 12 13 13 12 12 12 12 12 13 12 13 12 12 12 11 11 11 11 12 11 11
17 17 17 17 17 17 17 17 16 16 15 15 15 15 15 15 15 15 15 14 13 12 13 13 13 14 12 11 12 11 11 11 11 11 12 11 11 12 12 11 11 11 11
17 17 17 16 16 17 17 17 16 16 16 15 15 15 15 14 14 14 14 14 14 13 14 14 14 15 14 14 12 11 12 11 12 12 11 11 12 13 13 12 12 11 11
16 17 17 16 16 16 16 16 16 16 16 15 15 14 14 14 14 14 13 13 13 13 13 13 12 12 12 13 12 12 11 11 11 12 12 12 12 12 12 12 11 11 10
16 17 16 16 16 16 16 16 16 16 15 15 14 14 14 14 14 13 13 13 13 13 13 13 13 13 12 12 12 11 12 12 13 12 12 12 12 12 11 11 11 11 10
16 16 16 16 16 16 16 16 16 15 15 14 14 14 14 14 14 14 13 13 13 13 13 13 12 12 12 12 12 11 12 12 12 12 12 12 11 11 10 10 11 10 10
16 16 16 15 16 16 15 15 15 15 14 14 14 14 14 13 13 13 13 13 13 13 13 12 12 12 11 11 12 12 12 11 11 11 11 11 10 10 9 10 10 9 9
14 15 16 16 15 15 15 14 14 14 14 14 14 14 13 13 13 12 13 13 13 13 13 12 11 12 11 11 11 11 11 11 10 10 10 10 9 9 9 8 9 8 8
13 14 14 14 14 14 14 14 13 13 13 14 13 13 13 12 13 12 12 12 12 13 11 11 10 10 10 10 10 10 9 10 9 9 9 8 8 8 8 8 8 8 8
11 12 13 14 13 13 13 13 12 12 12 12 12 12 12 12 12 11 11 11 11 12 12 11 10 10 10 9 9 9 9 8 9 8 6 6 6 7 7 7 7 7 7
10 10 11 12 12 12 11 11 11 11 11 11 10 10 10 10 11 10 10 10 10 10 10 10 9 9 9 9 8 8 7 7 6 7 5 5 5 5 6 6 6 6 5
10 10 10 10 10 10 11 10 10 10 9 9 9 9 9 10 9 9 9 9 9 9 9 9 8 8 8 8 8 8 7 6 6 5 4 3 4 4 5 5 5 5 5
10 10 9 9 9 9 9 9 9 9 9 8 8 8 9 9 8 8 8 8 8 8 8 8 8 7 7 7 7 7 7 6 5 5 4 3 3 3 3 4 4 4 4
10 10 9 9 9 8 8 8 8 8 8 8 8 8 8 8 8 8 8 8 8 7 7 7 6 6 6 6 6 6 6 5 4 3 2 2 2 2 2 2 2 2 2
9 10 9 9 9 8 8 8 8 8 8 8 8 8 8 7 7 7 7 7 7 6 6 6 5 5 4 4 4 5 5 3 1 0 0 1 1 1 1 1 1 1 1
8 10 10 9 9 8 8 8 8 8 8 8 8 7 7 7 7 7 7 6 6 5 5 5 5 4 4 3 3 4 3 1 0 0 0 0 0 0 1 1 -1 0 0
7 9 9 9 9 9 8 8 8 8 7 7 7 7 6 6 6 6 6 5 5 5 4 4 4 3 3 2 1 2 -0 -1 -1 -0 -0 -0 -0 -1 -1 -1 -0 -0 -0
6 7 8 8 8 8 8 7 7 7 7 6 6 6 6 6 5 5 5 5 4 4 4 3 3 2 0 0 -1 -2 -1 -2 -1 -1 -1 -1 -2 -2 -1 -1 -1 -1 -1
6 6 7 7 7 7 7 6 6 6 6 6 6 5 5 5 5 5 4 4 4 4 3 3 2 1 -1 -1 -1 -1 -2 -2 -2 -2 -2 -2 -2 -1 -2 -1 -2 -2 -1
5 5 5 6 6 6 6 5 5 5 5 5 4 4 4 4 4 4 4 3 3 3 2 2 2 1 -0 -0 -1 -1 -2 -2 -2 -2 -2 -2 -2 -2 -2 -2 -2 -2 -2
5 5 5 5 5 5 5 5 5 4 4 4 4 4 4 3 3 3 3 3 2 2 2 2 1 0 -0 -1 -2 -2 -3 -3 -3 -3 -2 -2 -2 -2 -2 -2 -3 -2 -2
4 4 4 4 4 4 4 4 4 4 3 3 3 3 3 3 2 2 2 2 2 2 1 1 0 -0 -1 -2 -2 -2 -3 -3 -3 -2 -2 -2 -2 -2 -2 -2 -2 -2 -2

GFSMW_850_temp_105.txt.gz
Temp
15 16 16 16 15 15 15 16 16 16 16 15 15 15 15 15 15 15 15 15 15 15 15 15 14 14 14 14 13 13 13 13 13 13 13 14 14 14 13 13 13 12 12
15 15 15 15 16 15 15 16 16 16 16 16 15 15 15 15 15 14 15 14 14 15 15 14 14 14 14 13 13 14 14 14 13 13 13 13 14 14 14 13 13 12 12
13 15 15 16 15 15 16 16 16 16 16 16 16 16 16 15 15 15 15 14 14 14 15 14 14 14 13 13 13 13 13 14 13 13 12 12 13 13 13 13 13 13 13
13 14 14 16 16 16 16 15 16 16 16 16 16 16 16 16 16 16 16 14 14 14 14 14 14 14 14 13 13 13 12 13 12 12 12 12 12 12 11 12 12 12 12
14 14 15 16 17 17 16 16 16 16 16 16 16 16 16 16 15 15 14 14 14 14 14 13 14 15 15 14 13 13 12 11 11 11 11 11 11 11 10 11 11 11 11
14 15 16 16 17 17 17 16 16 16 16 16 16 16 15 15 15 15 14 15 15 15 14 14 15 14 14 14 13 13 14 12 13 11 10 10 10 10 10 10 11 11 11
12 15 16 17 17 17 17 17 16 16 16 15 15 15 15 15 15 15 15 15 15 15 15 15 14 13 13 12 12 12 12 12 12 12 11 10 11 10 11 10 10 11 10
14 15 17 18 17 17 16 16 16 16 16 15 15 15 15 15 15 15 15 15 14 14 13 13 13 12 11 11 12 11 11 12 11 10 11 10 11 11 11 11 11 11 10
16 15 17 17 17 17 16 16 16 16 16 15 15 15 15 15 15 14 14 14 14 13 13 13 12 12 12 12 11 11 12 12 11 11 11 11 11 11 11 11 11 11 10
15 16 16 17 17 16 16 16 16 16 15 15 15 15 14 14 14 13 13 13 13 13 13 12 12 12 12 11 11 11 11 11 11 10 11 11 11 11 10 10 10 10 10
14 16 16 16 16 16 16 15 15 15 15 15 14 14 13 13 13 13 13 13 12 12 12 12 12 12 12 11 11 11 11 11 11 11 11 10 10 11 10 9 8 9 10
13 15 15 15 16 16 15 15 15 15 15 15 14 13 13 13 13 13 12 12 12 12 12 12 12 12 11 11 11 11 10 10 10 10 10 9 9 9 8 8 8 8 8
12 14 15 15 15 15 15 14 15 15 14 14 13 13 12 12 12 12 12 12 12 12 12 11 11 11 11 11 10 10 10 9 9 9 9 8 8 7 6 7 7 7 7
12 12 13 13 13 14 14 14 14 14 14 13 13 12 12 12 12 11 11 11 11 11 11 10 10 10 10 10 9 9 9 9 8 8 8 7 6 5 6 6 7 7 7
10 11 12 12 12 12 12 12 12 13 12 12 12 11 11 11 11 11 10 11 11 10 10 9 9 9 9 9 9 8 8 8 8 7 7 6 6 4 5 5 6 6 6
9 10 10 11 11 11 11 11 11 11 11 11 10 10 10 10 10 10 10 10 10 9 9 8 8 8 8 8 8 8 7 7 7 7 6 5 4 3 3 4 5 5 5
9 9 9 10 10 10 10 10 10 10 9 9 9 9 9 9 8 9 9 9 9 8 8 8 8 8 7 7 7 7 7 6 6 6 6 4 3 2 2 3 3 3 4
10 9 9 9 9 9 9 8 8 8 8 8 8 8 8 8 8 8 8 8 8 7 7 7 7 7 7 7 6 6 6 5 5 5 4 1 1 1 1 1 2 2 3
9 9 9 9 9 8 8 8 8 8 8 8 8 8 8 8 8 7 7 7 7 7 7 6 6 6 6 6 6 5 5 4 4 3 1 0 0 -0 0 0 1 0 0
8 9 10 9 9 8 8 8 8 8 8 8 8 7 7 7 7 7 7 6 6 6 6 6 5 5 5 5 4 4 3 3 3 1 0 0 -0 -0 0 -0 -0 -0 -0
7 8 9 9 9 8 8 8 8 8 7 7 7 7 7 6 6 6 6 6 6 6 5 5 5 4 4 4 3 2 2 0 0 -0 -1 -1 -1 -1 -1 -1 -1 -1 -1
6 7 8 8 8 8 8 7 7 7 6 6 7 6 6 6 6 5 5 5 5 5 5 4 4 4 3 2 -0 -1 -1 -1 -1 -1 -1 -1 -2 -2 -2 -2 -2 -2 -2
5 6 6 7 7 7 7 7 6 6 6 6 6 6 6 5 5 5 4 4 4 4 4 4 4 4 2 1 0 0 -1 -1 -1 -1 -2 -2 -3 -4 -3 -2 -2 -3 -2
5 5 5 6 6 6 6 6 6 6 5 5 5 5 5 4 4 4 4 4 4 3 4 3 3 3 2 2 1 -0 -1 -1 -2 -2 -2 -3 -2 -2 -2 -3 -2 -2 -2
5 4 5 5 5 5 5 5 5 5 4 4 4 4 4 4 3 3 3 3 3 3 3 3 2 2 2 1 -0 -0 -1 -1 -2 -3 -3 -2 -2 -2 -2 -2 -3 -3 -3
4 4 4 4 4 4 4 4 4 4 4 4 4 3 3 3 3 3 3 3 2 2 2 2 2 2 2 0 -1 -1 -2 -2 -2 -3 -2 -2 -2 -2 -2 -3 -3 -3 -3

GFSMW_850_temp_108.txt.gz
Temp
12 15 16 14 14 15 15 16 17 16 15 15 14 14 15 14 14 14 15 15 15 15 15 15 15 15 15 15 14 13 13 13 13 13 13 14 13 14 14 14 13 13 12
12 13 15 14 15 15 14 14 15 16 15 15 15 15 15 15 14 14 14 14 15 15 15 15 15 14 14 14 13 13 13 12 12 12 12 13 13 13 14 14 13 13 13
12 12 14 14 14 15 15 14 14 14 15 16 15 15 15 15 14 15 15 15 15 14 15 14 14 14 14 13 13 13 13 12 12 12 11 12 12 13 13 13 13 13 13
12 13 13 14 15 15 15 15 15 13 14 15 15 14 13 15 15 16 16 16 16 15 14 14 13 14 14 13 12 12 12 13 13 11 11 11 11 11 12 12 12 12 12
13 14 14 13 15 15 14 14 14 13 13 13 14 15 14 14 14 14 14 15 16 15 14 13 13 13 13 13 13 12 13 12 12 13 12 11 11 11 11 10 11 11 10
14 15 15 15 14 15 15 15 14 14 14 14 14 13 14 14 13 14 15 15 15 15 14 14 13 13 12 12 13 12 12 12 12 11 11 11 11 11 10 10 10 10 10
14 16 16 16 16 15 15 14 14 14 14 14 13 14 14 14 14 14 15 15 15 15 14 14 14 14 14 13 13 12 12 11 11 11 11 10 10 10 10 10 10 10 10
14 16 16 16 17 16 16 16 15 15 15 15 15 15 14 15 15 15 15 15 15 14 14 14 14 13 13 12 12 11 11 11 10 10 10 10 10 10 10 9 9 9 10
12 15 15 16 17 17 17 16 16 16 15 15 15 15 15 15 15 15 14 14 14 13 13 13 13 12 11 11 12 11 11 10 11 11 10 10 10 10 10 9 9 9 9
13 14 15 16 16 16 16 16 16 16 15 15 15 15 14 14 14 14 14 13 13 13 12 12 12 12 12 12 11 11 11 10 10 11 11 10 10 10 10 10 9 8 9
13 14 15 15 16 16 16 16 16 16 15 15 15 14 14 14 14 13 13 13 13 12 12 12 12 12 12 11 11 11 11 11 10 11 11 10 10 10 10 10 9 8 8
14 14 14 15 15 16 16 15 15 15 15 15 15 14 14 13 13 13 13 13 12 12 12 12 12 12 11 11 11 11 11 10 10 10 10 9 9 9 8 8 7 7 7
12 13 14 14 15 15 15 15 15 15 14 14 14 14 13 13 12 12 12 12 12 12 11 11 12 11 11 10 10 10 10 10 10 9 9 9 9 8 8 7 6 7 7
11 12 12 12 13 14 14 14 14 14 14 14 14 13 13 12 12 11 11 11 11 11 11 11 11 10 10 10 9 9 9 9 9 9 9 8 8 7 7 5 5 6 6
10 11 11 12 12 12 12 13 13 13 12 12 13 12 12 12 11 11 11 10 10 10 11 10 10 10 9 9 9 8 8 8 8 8 7 7 7 7 6 5 4 5 5
9 10 10 10 11 10 10 11 11 11 11 11 11 11 11 11 10 9 10 10 10 10 10 9 9 9 8 8 8 8 7 7 7 7 6 6 6 6 4 2 2 3 4
9 9 9 9 9 10 10 10 10 10 10 10 10 10 10 9 9 9 9 9 9 9 9 8 8 8 7 7 7 7 6 6 6 6 6 5 5 4 2 1 2 1 2
8 8 9 9 9 9 9 9 9 9 9 9 9 9 8 8 8 8 8 8 8 8 8 7 7 7 7 6 6 6 6 5 5 5 4 4 4 1 0 0 0 1 1
7 8 9 9 9 8 8 8 8 8 8 8 8 8 7 7 7 7 7 7 7 7 7 7 7 6 6 6 5 5 5 5 5 4 4 4 2 0 1 0 -0 -0 -0
7 8 8 9 8 8 8 8 8 8 8 7 7 7 7 6 7 7 6 6 6 6 6 6 6 6 6 5 5 5 4 4 4 3 2 1 -1 -1 -0 0 -0 -0 -0
6 7 8 8 8 8 7 7 7 7 7 6 6 7 7 6 6 6 6 6 6 6 6 6 6 6 5 5 4 3 3 1 1 -0 0 -0 -1 -1 -1 -0 -1 -1 -1
5 6 6 7 7 7 7 7 6 6 6 6 6 6 5 6 6 6 6 6 6 6 6 5 6 6 5 5 3 2 0 -0 -0 -1 -1 -1 -1 -1 -1 -1 -2 -2 -2
5 5 5 6 7 7 7 6 6 6 6 6 6 6 6 6 5 5 5 6 6 5 5 6 6 6 6 4 3 2 1 1 0 -1 -1 -1 -1 -2 -2 -2 -2 -2 -2
4 4 5 6 6 6 6 6 6 6 6 5 5 5 5 5 5 5 5 5 4 4 4 4 4 4 4 4 3 2 1 0 0 -0 -1 -2 -2 -2 -2 -2 -3 -3 -3
4 4 4 4 5 5 5 5 5 5 5 5 5 4 4 4 4 4 4 4 4 4 4 3 3 3 3 2 2 2 0 -0 -1 -2 -2 -2 -3 -2 -2 -2 -3 -3 -3
4 4 4 4 4 4 4 4 4 4 4 4 4 4 3 3 3 4 3 3 3 3 3 3 3 2 2 2 2 2 0 -1 -2 -2 -2 -2 -3 -3 -3 -3 -3 -3 -3

GFSMW_850_temp_111.txt.gz
Temp
12 16 15 14 15 15 14 15 17 15 15 15 15 14 15 15 15 15 15 15 15 15 15 15 14 14 14 14 13 13 13 13 13 13 13 13 13 13 13 13 13 13 13
10 14 16 15 14 14 14 16 15 14 14 14 14 14 14 15 15 15 15 14 14 14 15 15 14 14 14 13 13 13 13 12 12 13 14 13 13 13 13 13 13 13 13
10 12 15 16 14 14 14 15 14 14 14 15 15 15 14 13 14 14 14 14 14 14 14 14 14 13 13 13 13 13 12 12 13 13 12 12 12 12 12 13 13 13 13
11 11 15 15 14 14 14 13 14 14 13 14 15 15 15 14 14 15 15 14 14 14 14 13 12 12 12 11 12 12 12 13 13 12 12 11 12 11 11 12 11 11 11
11 12 13 14 14 13 13 13 13 14 13 13 14 16 16 16 15 15 14 15 14 14 13 14 13 13 13 13 11 12 12 12 12 12 12 11 11 11 10 11 10 10 10
11 12 13 14 14 14 13 13 13 13 13 12 13 14 14 13 14 14 15 15 14 14 14 14 12 13 13 13 12 12 12 12 11 11 11 11 10 10 10 10 10 10 10
11 13 14 14 15 15 14 13 13 12 12 13 13 12 12 12 13 14 15 15 14 14 14 14 13 13 13 13 12 12 12 12 11 11 11 10 10 10 10 9 9 9 10
12 12 13 14 14 14 14 14 13 13 13 12 12 12 12 12 12 12 14 13 13 13 13 13 13 12 13 12 12 12 11 11 11 11 11 11 10 10 9 9 9 9 9
12 13 14 14 15 15 15 15 15 14 14 13 13 12 12 12 12 13 13 13 14 14 13 13 13 12 12 12 12 12 12 11 11 11 11 11 10 10 10 9 9 8 9
12 12 14 14 14 14 14 15 15 15 14 14 13 13 13 13 14 14 14 14 14 13 13 12 12 12 12 12 11 11 11 11 10 10 11 11 11 10 10 10 10 9 7
10 12 13 14 14 14 14 15 15 15 15 14 14 14 14 14 14 14 13 13 13 12 12 12 12 12 12 12 12 11 11 11 11 11 11 10 10 10 10 10 9 9 7
10 12 13 14 14 14 14 15 15 15 15 15 14 14 14 14 14 13 12 12 12 12 12 12 12 12 12 12 12 12 12 11 10 10 10 10 10 9 9 9 9 8 6
10 11 12 13 14 15 14 14 15 15 15 14 14 14 14 13 13 12 12 12 12 12 12 12 12 12 12 12 11 11 11 10 10 10 10 10 9 9 8 8 8 7 5
9 10 10 12 13 14 14 14 14 14 14 14 14 14 13 13 12 12 12 11 11 12 11 11 11 11 11 11 11 10 10 9 9 9 9 9 8 8 8 8 7 6 5
8 9 9 10 11 12 12 12 13 13 13 13 13 13 13 12 12 11 11 11 11 11 10 11 11 11 10 10 10 9 8 8 8 8 8 8 8 7 7 7 6 5 5
8 8 8 9 9 10 11 11 12 12 11 12 12 12 12 12 11 11 11 10 10 10 10 10 9 9 9 9 9 8 8 8 7 7 7 7 6 6 6 6 5 3 2
8 8 8 8 8 8 9 10 10 11 11 11 10 10 10 10 10 10 10 9 9 9 9 8 8 9 9 8 8 8 7 7 6 7 6 6 5 5 5 4 2 1 1
8 8 8 8 8 8 8 9 9 9 9 10 10 10 10 10 9 9 8 8 8 8 7 8 8 8 7 7 7 7 6 6 6 6 6 5 5 4 4 3 1 0 -0
6 8 9 9 8 8 8 8 8 8 8 8 8 8 8 8 8 8 8 7 7 7 7 7 7 7 7 6 6 6 6 6 5 5 5 4 4 3 3 1 1 1 0
6 7 8 9 8 8 8 7 7 7 7 7 7 7 7 7 7 7 7 7 6 6 6 6 6 6 6 6 6 6 5 4 4 3 3 2 2 -1 -1 -1 0 -0 -0
6 6 7 8 8 8 7 7 6 6 6 6 6 6 6 6 6 6 6 6 6 6 6 6 6 6 6 6 5 5 4 3 2 1 0 -0 -0 -1 -1 -0 -0 -1 -0
5 6 6 6 7 7 7 7 6 6 6 6 7 6 6 6 6 6 6 6 5 5 6 6 6 5 6 6 5 5 4 3 2 1 -0 -1 -1 -1 -1 -1 -1 -1 -1
5 5 5 5 6 7 6 6 6 6 6 6 5 5 5 5 5 5 5 5 5 5 5 5 5 4 4 4 6 5 4 3 3 2 1 0 -1 -1 -2 -2 -2 -2 -2
5 5 5 5 5 5 5 5 5 5 5 5 5 5 5 5 5 5 5 4 4 4 4 4 4 4 4 3 3 3 3 2 1 1 -0 0 -1 -2 -2 -2 -2 -2 -3
4 4 4 4 4 4 4 4 4 4 3 3 3 3 3 3 3 3 3 4 4 3 3 3 3 3 3 3 3 3 3 3 2 0 -1 -2 -2 -2 -3 -2 -2 -3 -3
3 3 3 3 3 3 3 3 3 3 3 3 3 3 2 2 3 3 2 3 2 2 2 2 2 2 2 2 2 2 3 2 -0 -1 -2 -3 -3 -3 -3 -3 -3 -3 -3

GFSMW_850_temp_114.txt.gz
Temp
9 11 12 12 11 12 13 13 15 15 14 14 15 14 14 14 13 12 13 14 15 14 14 14 13 13 14 14 13 13 13 13 13 13 13 14 14 13 13 13 13 13 13
9 11 11 12 11 12 13 14 13 14 14 15 16 15 14 14 14 15 15 15 14 14 14 14 13 13 13 13 13 13 13 13 14 13 12 13 12 13 14 14 13 12 12
10 11 11 12 12 12 13 14 14 13 14 14 16 14 14 14 14 14 15 15 14 14 14 14 13 13 13 13 13 13 13 13 14 13 12 12 13 12 12 13 13 13 12
10 10 10 12 12 13 13 13 14 14 13 14 15 16 15 14 15 15 15 15 14 14 14 14 13 13 13 13 13 13 13 14 14 12 12 12 11 11 12 11 12 12 11
8 10 10 12 13 13 13 13 13 13 14 15 14 15 14 14 15 14 15 14 14 13 13 13 13 13 13 13 13 14 14 13 12 12 12 12 12 11 11 10 10 11 11
9 9 10 13 13 12 13 12 12 13 13 13 13 13 13 14 15 14 14 14 14 15 13 12 12 12 12 12 12 12 12 12 12 12 12 11 11 11 10 10 10 11 11
8 10 10 13 14 12 12 13 13 13 12 12 12 12 12 13 14 14 14 14 13 13 13 13 13 12 12 12 12 12 12 12 12 11 11 11 11 11 10 10 10 10 10
9 10 11 12 14 13 12 12 13 12 12 13 11 11 11 12 12 12 12 12 12 12 13 13 13 12 12 12 12 12 12 11 11 11 11 10 11 11 9 10 9 9 9
8 9 13 13 12 12 13 13 12 13 12 12 11 12 13 12 11 11 12 12 11 12 12 13 12 12 12 12 12 12 12 11 11 11 11 11 11 11 11 10 9 8 8
8 11 11 12 12 13 13 13 12 12 12 12 11 12 13 11 13 11 11 11 11 12 12 11 11 11 12 12 12 12 12 11 11 11 11 11 11 11 10 10 10 9 8
8 9 12 12 12 12 12 13 13 12 12 12 12 13 13 11 11 11 12 12 12 12 13 11 11 12 12 12 12 12 11 11 11 11 11 11 11 11 10 10 10 9 8
9 9 10 12 12 13 14 14 14 14 14 13 13 13 13 12 12 12 12 12 12 12 12 12 12 12 12 12 11 11 11 11 10 10 10 10 10 10 10 10 9 9 9
9 11 11 11 12 12 13 14 14 14 14 13 13 13 13 13 12 13 12 12 12 12 11 12 12 12 11 11 11 11 11 10 10 10 10 10 10 10 9 9 9 8 8
8 10 12 11 11 12 12 13 14 14 14 14 13 13 13 13 13 12 11 11 11 11 11 11 11 11 11 11 11 11 11 10 10 10 10 10 9 9 8 8 8 7 7
6 7 8 10 10 10 10 12 13 14 14 14 14 13 13 13 12 11 10 11 10 10 11 10 10 10 10 11 10 10 10 9 9 9 9 9 8 8 7 7 7 6 6
5 7 7 8 9 9 10 10 11 11 12 13 13 13 12 12 11 10 10 10 10 10 10 10 10 10 10 10 10 9 9 8 8 8 8 8 7 7 6 6 6 5 5
5 7 7 8 8 8 9 10 10 10 11 11 11 11 10 10 10 10 10 10 10 10 10 10 10 9 9 8 8 8 7 7 7 7 7 7 7 6 5 5 5 4 4
5 6 7 8 8 8 9 9 9 9 9 9 10 10 10 9 10 9 9 9 9 9 9 9 8 8 8 7 7 7 7 7 7 7 7 6 5 5 5 5 4 3 2
6 6 7 8 8 8 8 8 8 9 9 9 8 8 9 9 8 8 8 8 8 8 8 7 7 7 7 7 7 6 6 6 6 6 5 5 5 4 5 4 2 2 1
5 6 7 7 7 7 8 8 8 7 7 7 8 7 7 7 7 7 7 7 7 7 7 7 7 6 6 6 6 6 6 6 5 4 4 3 2 2 2 -0 -0 -0 0
6 5 6 6 6 6 6 6 6 7 7 7 6 6 6 6 6 6 6 6 6 6 6 5 5 5 6 6 6 6 6 5 4 3 2 1 -0 -1 -1 -1 -1 -1 -0
5 5 5 5 5 5 5 5 5 6 6 6 6 6 6 6 6 5 6 6 5 6 6 6 6 6 6 6 6 6 5 5 4 3 2 2 0 -0 -1 -1 -1 -0 -0
4 5 5 5 5 5 5 5 5 5 5 4 4 4 4 5 5 5 5 5 5 5 5 5 5 5 4 4 4 4 4 4 3 3 2 1 2 1 -1 -2 -2 -1 -2
4 4 4 4 4 5 5 5 5 5 4 4 4 4 4 3 3 3 3 3 4 4 4 4 3 3 4 4 4 3 3 2 2 3 2 1 -0 -1 -2 -2 -2 -2 -2
4 4 4 4 4 3 3 3 3 3 4 3 4 3 3 3 3 2 2 2 2 2 3 3 3 3 3 3 3 2 2 2 2 2 2 0 -1 -2 -3 -3 -2 -2 -3
4 3 3 3 3 3 3 3 2 2 2 3 3 2 2 2 2 2 2 2 2 2 2 2 2 2 2 2 2 2 2 2 1 3 1 -2 -2 -3 -3 -3 -3 -3 -3

GFSMW_850_temp_117.txt.gz
Temp
11 11 11 13 14 12 13 12 13 13 14 13 13 12 12 12 12 12 12 13 12 12 13 12 12 12 13 12 13 13 14 14 14 13 13 13 12 13 13 13 13 12 13
11 11 11 13 13 11 13 11 12 13 14 14 13 13 14 13 13 13 13 14 13 14 13 12 12 12 12 12 13 13 14 13 14 13 13 13 13 13 13 13 13 12 12
12 12 12 12 12 13 13 13 12 14 14 13 13 13 13 13 13 13 13 12 13 13 13 12 12 12 13 12 13 14 14 13 12 12 12 13 13 13 12 13 13 12 12
11 11 11 12 13 12 13 12 12 13 14 13 13 13 13 13 13 13 12 12 13 13 13 13 14 14 14 14 14 13 14 13 13 12 12 12 12 12 12 12 12 12 12
11 11 10 12 12 12 13 12 12 12 14 14 13 13 13 14 14 14 14 14 14 14 15 14 14 14 13 13 13 13 13 13 12 13 12 12 12 12 11 11 10 11 11
10 9 10 11 12 12 14 11 12 12 13 14 13 13 13 13 13 13 12 13 13 14 13 13 13 14 13 13 13 13 12 12 12 12 12 12 11 11 11 11 10 10 11
8 10 11 11 12 12 13 12 11 13 13 13 13 13 13 14 13 15 14 14 13 14 14 13 13 13 13 12 12 13 13 12 12 11 12 11 11 11 10 10 10 10 10
8 9 11 12 12 13 12 12 11 10 12 12 12 12 13 13 13 14 13 13 13 12 12 12 13 13 12 12 13 13 13 11 11 11 11 11 11 11 11 11 10 9 9
7 10 11 11 13 13 12 12 11 11 11 11 12 12 12 12 13 13 13 13 13 11 12 12 12 12 12 12 13 12 11 11 11 11 11 11 11 11 11 11 10 9 8
7 9 10 12 12 12 13 12 11 13 13 11 12 11 11 11 11 11 12 12 13 12 11 11 12 11 12 12 11 11 11 11 12 12 11 11 11 11 11 11 10 10 8
7 7 9 11 11 12 12 12 11 11 11 11 11 11 12 11 12 11 11 11 12 12 11 10 10 12 12 11 11 12 12 12 12 11 11 11 11 11 11 11 10 10 8
6 7 9 11 11 12 12 12 11 11 11 12 11 11 11 11 10 11 10 12 11 12 12 11 10 10 11 11 11 12 12 11 11 11 11 11 11 10 10 10 9 9 8
6 7 7 9 10 10 12 12 12 12 12 12 12 12 12 11 11 11 12 10 11 11 11 10 10 10 10 11 11 11 11 12 12 12 11 10 10 10 10 9 9 9 8
6 6 7 8 9 10 10 10 12 12 12 12 12 13 12 11 11 11 11 10 10 10 10 10 10 10 11 11 11 12 12 12 11 11 10 10 9 9 9 9 8 8 8
5 8 7 6 8 9 10 10 11 12 13 13 13 13 12 12 12 11 11 10 10 10 12 11 11 11 11 11 11 11 11 10 10 10 9 9 9 8 8 8 7 8 7
6 6 6 8 8 10 10 9 9 9 10 12 13 13 12 11 11 11 10 10 10 11 11 11 11 11 11 11 10 10 10 10 9 9 9 8 8 8 8 7 7 6 5
6 6 5 6 7 8 9 10 9 9 10 11 11 11 11 11 10 10 10 9 9 10 10 10 10 10 10 10 9 9 8 8 8 8 8 8 8 7 7 6 6 6 6
5 5 5 6 6 7 8 8 9 9 9 9 9 9 10 10 10 9 9 9 10 10 9 9 9 9 9 9 8 7 8 7 7 7 7 7 6 6 5 5 5 5 4
4 4 5 6 7 7 7 7 8 8 8 9 9 8 9 9 9 9 9 9 9 9 8 8 8 8 8 7 7 7 7 7 7 6 6 5 4 4 4 4 4 4 3
3 4 4 4 5 6 6 7 7 7 7 7 7 8 8 8 8 8 8 8 8 8 8 7 7 7 7 7 7 6 7 7 6 5 5 4 4 3 2 2 2 2 2
5 3 5 6 5 5 4 5 6 6 6 6 6 6 7 7 7 7 7 7 7 7 7 7 6 6 7 6 6 6 6 6 5 5 4 3 3 2 2 1 1 1 0
5 5 5 5 5 6 6 5 5 4 5 5 5 5 5 5 5 5 5 6 5 5 5 5 5 6 6 6 6 6 5 5 5 4 3 3 2 1 2 1 1 1 0
5 4 4 5 5 5 5 6 6 5 5 4 4 4 5 5 4 4 4 4 4 4 5 5 5 5 5 5 5 5 5 4 4 4 3 3 3 2 2 1 1 0 -0
5 4 4 4 4 4 4 4 4 5 5 5 4 3 3 3 4 4 4 3 3 3 2 4 4 3 4 4 4 4 4 4 4 4 4 3 3 1 -0 -1 -1 -1 -1
4 4 4 4 4 3 3 3 3 3 3 3 3 3 3 3 3 2 2 2 2 2 2 2 2 2 3 3 4 4 4 4 3 3 3 2 2 0 -1 -2 -2 -2 -2
4 3 3 3 2 2 2 2 2 2 2 2 3 2 2 2 2 2 1 1 1 0 1 1 1 1 2 2 2 2 2 2 2 1 1 1 -0 -1 -2 -2 -3 -3 -3

GFSMW_850_temp_120.txt.gz
Temp
12 13 12 12 12 13 13 14 12 12 13 13 14 14 14 13 13 13 13 13 13 13 13 13 13 13 14 14 15 15 14 13 13 13 13 13 13 13 13 13 12 12 12
13 12 11 11 12 13 14 14 12 12 12 13 13 13 13 13 12 12 12 12 13 13 13 13 13 14 14 14 14 14 14 14 13 13 13 13 13 13 13 13 13 13 12
12 11 12 11 12 14 15 14 12 12 13 13 13 13 13 12 12 12 12 12 12 13 12 13 14 14 14 14 14 14 14 13 12 12 13 13 13 12 12 13 12 12 12
11 12 12 11 12 14 15 13 11 12 13 13 13 13 13 12 12 12 12 12 12 12 12 13 13 14 14 14 13 13 13 13 13 12 12 13 13 13 12 12 12 12 12
11 11 12 11 11 13 12 12 12 12 11 12 13 13 13 13 13 13 12 12 12 12 13 13 14 15 14 13 13 13 14 13 13 12 13 12 12 12 11 11 11 11 11
11 11 11 10 10 13 12 12 12 13 13 12 14 14 13 13 13 13 13 12 12 12 12 13 14 14 13 13 14 14 13 13 13 12 12 12 11 12 11 11 11 10 11
9 10 10 10 10 12 12 11 12 11 12 13 13 14 14 15 15 14 13 12 12 12 13 13 13 13 14 14 14 13 13 14 14 13 13 12 11 11 10 10 10 10 10
8 9 10 10 11 12 11 11 12 11 11 12 12 13 14 15 14 13 12 12 12 13 13 13 13 13 13 13 14 14 14 14 14 13 13 11 11 11 11 10 11 10 10
7 9 11 11 11 12 12 12 13 14 11 11 11 12 12 13 12 12 12 12 13 14 13 12 12 12 12 13 13 13 13 13 14 13 11 11 10 11 10 11 10 10 9
8 9 11 11 12 12 12 13 14 14 11 11 11 11 11 11 12 12 12 12 12 12 12 12 12 12 12 12 12 13 13 13 12 12 11 11 11 11 11 11 11 11 10
6 9 11 12 11 12 13 11 13 12 12 11 11 11 12 12 12 11 12 11 12 12 12 12 12 11 11 11 11 14 12 12 11 11 11 11 11 11 11 11 11 10 10
6 8 11 11 11 11 11 11 11 11 11 11 11 10 10 11 10 10 10 10 11 11 12 11 11 11 11 10 11 13 13 11 11 11 11 11 11 11 11 11 11 10 9
6 7 9 10 11 11 11 11 11 11 11 11 10 10 11 12 11 11 11 10 10 10 10 10 11 11 12 11 11 10 11 11 10 10 10 11 11 11 11 10 10 9 8
5 6 7 8 9 10 10 10 11 11 11 11 12 12 12 11 10 10 10 11 10 10 10 10 10 11 11 10 11 10 10 10 11 11 11 11 11 11 10 10 9 8 8
5 5 6 7 8 9 10 10 11 11 11 11 11 11 11 11 10 10 9 10 10 10 10 10 11 11 10 10 10 10 10 10 11 10 10 10 10 9 9 8 8 8 7
5 5 5 6 7 8 9 9 10 12 12 11 10 10 10 10 10 9 10 10 11 11 10 10 10 9 10 10 10 10 10 10 10 10 10 9 9 8 8 8 7 7 7
5 5 5 5 6 6 7 9 10 10 11 11 10 9 10 9 10 9 9 10 10 10 10 9 10 10 10 10 10 10 10 10 10 10 9 9 8 8 8 8 7 7 6
4 5 6 6 7 6 7 7 8 8 8 8 8 8 9 9 9 9 9 9 9 9 9 9 9 9 10 9 9 9 9 9 9 8 8 8 8 7 7 6 6 5 5
4 4 5 6 6 7 6 7 7 7 7 7 8 8 8 8 8 9 8 8 8 8 8 8 9 9 9 9 8 8 9 8 8 7 7 7 6 6 6 5 5 4 4
5 6 6 6 7 6 6 7 7 7 7 7 7 7 7 7 8 7 7 7 7 7 7 8 8 8 8 8 8 7 7 7 7 7 6 6 5 5 5 5 4 2 2
5 5 6 6 6 6 7 7 7 7 6 6 6 6 6 7 7 7 6 7 7 7 7 7 7 7 7 7 6 7 7 7 7 6 6 5 4 4 3 3 2 2 1
5 5 6 6 6 6 6 6 7 6 6 6 6 6 6 6 6 5 6 6 6 6 6 6 6 6 6 6 6 6 6 6 6 6 5 5 4 3 3 2 1 1 1
4 4 5 5 5 5 5 5 5 5 5 5 5 5 5 5 5 4 4 4 4 4 4 4 4 5 4 5 5 5 5 5 5 5 4 4 3 3 2 2 1 1 -0
3 2 3 4 4 5 5 5 5 5 5 4 4 4 3 4 4 4 4 3 3 3 3 3 3 3 3 3 4 4 4 4 4 4 4 3 3 3 2 2 0 -1 -2
4 4 4 3 3 3 3 4 4 4 4 3 3 3 3 4 4 3 3 2 2 2 2 1 2 2 2 3 2 2 2 3 3 3 3 2 2 2 2 1 -0 -1 -2
4 3 3 3 3 2 3 3 2 2 2 2 3 3 3 2 2 2 2 2 2 1 1 0 0 0 0 1 1 1 1 1 1 1 2 2 2 2 1 -0 -1 -2 -3

GFSMW_850_temp_123.txt.gz
Temp
11 10 11 12 12 12 12 12 13 14 11 11 12 12 13 13 13 14 13 14 14 14 13 13 13 13 13 14 14 14 14 13 13 13 13 13 13 12 12 13 12 12 12
10 10 11 12 12 12 12 12 12 13 14 11 13 12 13 13 14 14 14 14 13 14 13 13 13 13 13 14 15 14 14 13 13 13 13 13 12 12 12 13 13 12 12
11 11 11 12 12 12 11 12 13 14 14 12 12 12 13 12 13 13 14 14 13 13 13 13 13 13 14 15 15 14 14 14 13 12 13 13 13 12 13 12 12 13 12
11 11 12 12 12 12 10 12 13 13 13 12 11 12 13 13 12 13 13 14 13 13 13 13 13 14 15 15 15 14 14 14 13 12 13 13 13 13 12 12 12 12 12
11 11 12 12 12 11 10 12 13 13 13 12 11 12 12 14 14 13 13 13 13 13 13 13 14 14 14 14 14 15 14 14 12 12 12 13 13 13 12 12 12 11 12
11 11 11 12 12 11 10 10 10 12 11 14 11 12 13 13 12 13 13 12 12 12 13 13 13 13 13 13 14 14 14 14 13 13 13 13 12 12 12 11 11 10 11
10 11 11 11 11 10 10 10 11 12 12 11 11 12 13 13 12 12 12 12 12 12 12 12 12 12 13 14 14 14 13 13 13 13 13 13 12 11 11 11 10 10 10
9 10 10 10 11 10 10 11 11 11 10 14 10 11 11 12 13 12 12 12 12 12 12 12 12 13 13 13 13 13 13 13 13 13 13 12 11 11 11 11 10 10 10
8 9 10 10 10 10 10 12 11 11 12 13 13 12 12 11 12 13 13 13 13 13 13 12 12 12 13 13 13 13 13 13 13 12 12 11 12 11 11 10 11 11 10
7 9 10 10 10 10 10 11 11 12 12 12 11 11 12 11 11 13 12 13 13 13 12 12 12 12 12 13 12 12 12 12 12 12 11 13 13 10 11 10 10 11 11
7 10 11 10 10 10 11 12 12 11 13 12 11 11 11 11 11 12 12 12 13 14 13 12 12 12 12 12 12 12 12 13 13 13 13 13 12 11 10 10 10 11 11
9 9 10 10 10 11 11 12 12 12 12 11 10 10 12 10 10 11 11 12 13 12 12 12 11 11 12 12 12 12 12 12 12 12 13 12 11 11 11 10 10 10 10
6 8 9 10 10 10 10 10 10 11 11 10 10 10 11 11 11 10 11 10 11 11 11 11 11 11 11 11 11 11 11 12 11 12 12 11 10 10 10 10 9 9 9
5 6 7 8 10 10 10 10 10 11 10 10 10 10 11 11 10 10 10 10 10 11 11 11 11 11 11 11 10 10 11 10 10 11 11 11 10 10 10 10 9 10 9
5 5 6 8 9 9 10 10 10 10 10 10 10 9 10 10 10 10 10 10 10 10 10 10 10 10 10 10 10 11 9 10 10 10 10 10 10 10 9 9 9 9 8
4 5 6 7 8 9 9 9 9 9 10 10 10 10 10 10 10 9 9 9 9 9 10 10 9 9 9 9 10 11 10 10 10 10 10 10 10 9 9 9 8 8 8
4 4 5 7 8 8 8 8 8 8 9 9 9 9 9 9 9 10 9 9 9 9 9 9 9 10 10 9 9 9 9 9 10 10 10 9 9 9 9 9 8 8 7
4 4 5 6 7 8 9 10 9 9 8 8 8 8 9 9 9 9 9 9 9 9 9 9 9 9 9 9 9 9 9 9 9 9 9 9 9 9 8 8 8 7 7
4 4 5 5 5 6 7 8 8 8 8 7 8 8 8 8 8 8 8 8 8 8 8 8 9 9 8 9 8 8 8 9 9 8 8 8 8 8 7 7 6 6 5
4 4 5 5 6 6 7 7 7 8 8 8 8 8 7 8 8 8 7 7 7 8 7 7 7 7 7 6 7 6 7 7 7 7 7 7 7 7 6 6 5 5 4
5 5 6 6 5 5 6 7 6 6 6 6 7 7 7 7 7 7 7 7 7 7 6 6 6 6 6 6 6 6 6 7 7 7 7 7 6 6 6 5 5 4 3
5 5 6 5 5 5 6 6 6 5 5 5 5 6 6 6 6 6 6 5 5 5 5 5 5 5 5 5 5 5 5 5 5 6 6 5 5 5 5 4 4 3 2
5 5 5 5 5 5 5 6 5 5 5 5 5 5 5 4 4 4 5 5 4 4 4 4 4 4 4 4 4 4 4 4 4 4 4 4 4 4 4 4 3 3 2
5 5 5 5 4 4 4 4 4 4 4 4 4 4 4 4 4 3 3 3 3 3 3 3 3 3 2 3 3 3 3 3 3 3 3 3 3 3 3 3 3 2 1
5 5 5 5 5 5 5 4 4 3 4 3 3 3 3 3 2 2 2 2 2 2 2 2 1 1 1 1 1 1 1 1 1 1 1 2 2 3 3 2 2 1 -1
3 4 4 4 4 4 4 4 4 4 3 3 2 2 2 2 2 2 1 1 1 1 1 1 1 0 0 -0 -0 -0 -0 -0 -0 -0 -0 -0 0 0 1 1 1 -0 -1

GFSMW_850_temp_126.txt.gz
Temp
9 10 10 10 10 10 11 12 12 12 13 13 14 13 13 13 13 12 13 13 13 14 13 14 14 14 14 15 14 13 14 13 13 13 12 12 13 12 12 12 12 12 12
8 10 10 10 10 11 10 12 12 12 12 13 14 14 15 13 12 14 12 12 13 13 13 13 14 14 14 14 13 14 13 13 13 13 13 12 12 12 12 12 12 12 12
8 9 10 10 10 11 11 12 12 12 12 13 13 13 13 14 13 12 12 11 13 13 13 13 14 14 13 13 14 14 14 14 13 13 13 12 13 12 12 12 12 12 12
8 9 10 10 11 11 11 12 12 12 12 13 13 13 14 15 12 13 12 12 12 13 14 14 14 14 13 13 14 14 15 15 14 13 13 13 14 13 12 12 12 12 11
9 10 10 11 11 11 11 12 12 11 11 12 13 13 12 15 11 11 11 12 12 13 14 14 14 13 13 14 14 14 14 14 14 14 13 13 13 13 13 13 12 12 12
9 10 10 11 11 11 12 11 11 11 10 11 12 12 14 12 12 12 12 12 12 13 14 13 13 13 13 13 14 14 14 14 13 13 13 13 13 13 13 12 12 11 11
9 10 11 11 11 11 11 11 11 10 10 11 11 13 13 11 12 13 13 12 13 13 13 13 13 13 13 13 14 14 13 13 13 13 12 13 13 13 13 12 11 11 11
7 9 10 10 11 11 11 11 11 10 10 10 11 11 11 11 12 12 13 13 13 13 13 13 13 13 13 13 13 13 13 13 12 12 12 13 13 13 12 12 11 11 10
7 8 9 10 11 11 11 10 10 10 10 10 11 11 10 11 11 12 13 13 13 13 13 13 13 13 13 13 13 12 12 12 12 12 12 13 12 11 11 10 10 10 11
6 7 9 11 10 10 10 10 11 10 11 10 12 13 12 10 11 11 12 13 13 13 13 12 13 13 13 12 12 12 12 12 12 11 12 12 11 10 11 10 10 11 10
6 7 9 9 10 9 8 10 11 11 11 10 11 12 14 11 11 11 11 12 12 13 13 13 12 12 12 12 12 12 12 11 11 12 12 11 10 12 12 11 11 12 11
7 8 9 9 9 9 10 11 11 11 11 10 10 11 10 10 11 12 11 11 12 12 12 12 12 13 12 12 12 11 11 11 11 11 12 10 10 12 11 11 11 11 11
8 9 9 9 10 10 10 10 10 10 10 11 11 10 11 10 10 11 11 11 12 12 12 12 12 13 13 13 12 12 11 11 11 11 11 10 10 12 11 12 11 10 10
6 6 8 9 10 10 10 10 9 10 10 10 10 10 10 10 10 11 10 11 11 11 11 11 12 12 12 13 12 12 10 11 11 10 11 10 11 11 11 11 10 10 10
4 5 6 8 9 10 10 10 10 10 9 9 9 9 9 9 9 10 10 10 10 10 11 11 11 11 12 12 12 10 10 11 11 10 10 10 9 10 11 10 10 9 9
4 4 6 7 8 9 9 9 9 10 9 9 9 9 10 10 10 10 10 10 10 10 10 10 10 11 11 10 10 9 9 10 10 9 9 9 9 9 10 10 8 8 8
3 3 4 5 7 8 8 8 8 9 9 9 9 9 9 9 9 9 9 9 9 9 10 10 10 10 10 9 9 9 10 10 9 9 9 9 8 9 10 9 8 8 8
4 4 4 5 6 6 7 7 7 7 7 8 8 8 9 8 8 8 8 8 8 9 9 9 9 9 9 9 9 9 9 9 9 8 8 9 9 9 8 8 8 8 7
3 4 5 5 6 7 7 7 7 7 7 7 7 7 7 8 8 8 8 8 8 8 8 8 8 9 8 8 8 8 8 7 7 7 7 8 8 7 7 8 7 7 6
4 4 5 5 6 6 7 8 8 7 7 6 6 6 6 6 7 7 7 8 7 7 7 7 7 7 7 6 7 6 7 5 6 6 6 6 6 7 7 6 6 6 6
5 5 6 6 5 6 7 7 7 6 6 6 6 6 6 7 6 6 6 6 7 7 7 6 7 6 6 6 6 5 5 5 5 5 5 5 6 6 5 5 5 5 5
4 4 5 5 5 5 6 6 6 5 5 5 6 6 6 6 6 6 6 6 5 5 5 5 6 6 5 5 5 4 4 4 4 4 4 4 4 5 5 5 4 5 4
4 5 5 5 4 4 5 5 4 4 4 5 5 5 5 5 5 5 5 5 5 5 5 4 4 4 3 4 4 3 3 3 3 3 3 3 2 3 4 4 3 3 3
4 4 4 4 4 4 4 4 4 4 4 4 4 4 4 4 4 3 3 3 3 3 3 3 3 3 3 3 2 2 2 2 2 2 2 1 1 1 2 2 3 3 3
4 3 3 3 3 2 2 3 3 3 3 3 3 3 3 2 2 2 2 1 1 1 2 2 2 1 1 1 1 1 1 1 1 0 -0 -0 -0 0 1 1 1 1 1
4 4 3 3 3 2 3 3 2 2 2 3 2 2 2 2 1 1 1 1 0 0 0 0 0 1 0 0 0 0 0 -0 -0 -0 -0 -1 -1 -1 -1 -1 -1 -1 -1

GFSMW_850_temp_129.txt.gz
Temp
8 7 8 9 10 10 10 10 10 11 11 11 12 12 13 14 14 12 14 13 14 14 14 14 14 14 15 15 14 14 13 13 13 13 12 12 12 12 12 13 13 13 12
6 7 7 8 9 10 10 10 10 10 11 11 12 12 13 13 14 13 13 14 13 14 14 13 13 14 14 14 14 13 13 13 13 13 12 12 12 12 12 12 12 12 12
6 6 7 8 9 9 10 10 10 10 11 12 11 12 12 13 13 12 12 13 13 13 14 13 13 14 14 14 14 14 14 14 13 13 13 12 12 12 12 12 12 12 12
6 6 6 7 9 10 10 10 10 11 11 12 11 12 13 13 13 13 14 14 13 13 13 12 12 13 13 14 14 14 14 14 14 13 13 13 13 12 12 12 12 12 12
5 6 7 8 10 10 10 10 10 11 11 12 12 12 12 12 14 14 13 13 13 13 13 12 12 13 13 14 13 14 14 13 14 14 13 13 13 13 13 13 12 11 11
6 7 9 9 10 10 10 11 10 11 11 11 11 12 12 12 12 13 12 12 12 13 13 12 11 12 13 13 13 14 13 14 14 14 13 13 13 13 14 14 13 12 11
6 7 9 9 9 10 10 10 11 11 11 11 11 11 11 11 12 12 12 12 12 13 12 12 13 12 12 13 13 13 13 13 14 13 13 13 13 13 14 13 13 12 11
5 7 8 9 10 10 11 11 11 11 11 11 11 11 11 11 10 12 11 12 12 14 13 12 12 13 13 13 13 13 13 13 13 13 13 13 13 13 13 13 13 11 11
4 6 7 8 10 10 11 11 11 11 11 11 11 10 10 10 10 11 11 11 11 13 13 13 12 13 13 13 13 13 13 13 13 13 12 12 13 13 13 13 12 12 11
4 6 7 7 8 9 10 11 11 11 10 10 11 11 11 10 10 11 11 11 12 11 12 13 12 13 13 13 13 13 13 13 13 12 12 13 13 12 12 12 11 11 12
7 8 8 8 9 9 9 10 9 9 9 9 10 10 11 10 11 12 11 11 11 12 12 12 13 13 13 13 13 13 13 13 12 12 12 12 12 12 12 12 10 10 11
7 7 8 9 9 9 8 8 8 9 8 9 10 10 10 11 11 11 11 11 12 12 12 12 13 13 12 13 13 13 13 12 12 12 11 11 12 12 11 11 11 11 12
8 7 7 7 8 8 8 8 10 10 10 10 10 10 10 10 10 10 11 11 11 12 12 13 13 12 13 13 13 13 13 13 13 11 11 11 11 10 10 10 11 11 12
7 8 7 7 7 8 10 10 10 10 10 10 10 10 9 10 10 10 10 11 12 12 12 12 12 13 13 12 13 13 13 13 13 12 12 11 11 11 11 10 10 11 10
4 4 5 5 7 9 9 10 9 9 9 9 9 10 10 10 10 10 10 11 11 11 12 12 12 12 12 12 12 12 12 13 12 12 12 11 11 11 10 10 10 10 9
3 3 3 6 7 8 8 9 9 9 9 9 9 9 9 9 10 10 10 10 10 10 10 10 11 11 11 10 11 11 11 11 11 11 11 11 10 10 9 9 8 8 8
2 3 4 6 7 8 8 8 8 9 9 9 9 9 9 9 9 9 9 10 10 10 9 10 10 10 9 10 10 10 10 10 10 10 10 10 9 9 9 9 9 7 8
3 4 5 6 6 7 7 8 8 9 9 9 10 10 9 9 9 9 9 9 9 9 9 9 9 9 9 9 9 9 9 9 9 9 9 9 9 9 8 7 7 7 7
3 3 4 4 4 5 5 6 7 7 8 7 7 7 7 7 8 9 9 9 9 9 9 9 9 9 9 9 8 9 8 8 8 7 7 7 7 6 6 5 6 5 6
4 5 5 5 6 5 5 6 6 6 6 6 6 6 6 6 6 7 7 7 7 7 7 7 7 7 7 8 9 8 7 7 6 6 6 6 5 4 4 5 5 5 5
4 5 6 5 5 5 6 6 5 5 4 5 5 5 6 6 6 6 6 6 7 7 7 7 6 6 5 6 6 6 6 8 7 6 5 4 4 4 4 3 4 4 3
5 5 5 5 4 5 5 4 4 3 4 5 5 5 5 5 5 5 5 5 5 5 6 5 5 5 5 5 5 5 5 4 4 5 5 4 4 3 3 3 2 1 1
4 4 5 5 5 5 5 5 4 3 4 5 5 4 4 4 4 5 4 4 3 3 3 3 3 3 3 2 2 3 3 3 4 3 2 2 2 3 2 1 0 0 0
3 4 4 4 4 3 3 4 3 3 3 3 3 3 3 3 3 3 4 3 3 3 2 2 2 2 2 2 2 1 1 1 1 2 2 2 2 1 1 1 0 -0 0
4 3 3 3 3 3 3 3 2 2 2 2 2 2 2 2 2 2 2 2 1 1 1 1 0 0 0 0 0 0 1 0 0 0 0 0 1 0 0 -0 -1 -1 -1
3 3 2 2 2 2 1 1 1 1 1 1 1 1 1 1 1 1 1 1 1 1 0 0 -1 -1 -1 -1 -1 -1 -1 -1 -1 -1 -1 -1 -1 -1 -1 -1 -1 -1 -1

GFSMW_850_temp_132.txt.gz
Temp
7 7 8 8 8 8 9 9 10 10 11 12 12 12 13 13 13 13 13 13 14 14 14 14 14 13 14 15 14 14 13 13 12 13 12 12 12 12 12 12 13 12 12
6 7 7 8 8 8 9 9 9 10 10 11 11 11 13 13 13 13 13 13 13 13 14 14 13 13 13 14 14 14 13 13 13 13 12 12 12 12 12 12 12 13 12
5 5 6 7 8 9 9 9 10 10 10 10 10 10 11 12 12 13 13 13 13 14 13 13 13 14 13 13 14 13 13 13 13 12 13 12 12 12 12 12 12 12 12
4 4 6 7 7 9 9 8 9 10 10 10 10 10 10 11 12 13 13 14 13 13 14 14 13 13 12 13 14 13 13 13 13 12 12 13 14 13 12 12 12 12 12
3 4 6 7 8 8 9 9 10 10 10 10 10 10 10 11 12 13 14 13 13 13 14 14 14 13 13 12 13 13 13 13 13 13 13 13 13 13 14 13 13 12 12
3 4 6 7 9 9 9 9 9 10 10 10 10 10 11 11 11 12 13 13 13 13 13 13 12 14 13 11 12 12 13 13 13 13 13 14 13 13 13 14 13 13 12
3 4 5 7 9 10 10 9 9 10 10 10 10 9 10 11 12 13 13 13 12 12 12 12 12 12 12 12 12 12 13 13 13 13 13 13 13 13 13 14 14 13 13
3 5 5 6 8 9 9 9 10 10 10 11 10 10 11 11 11 11 12 12 12 12 11 12 11 12 12 12 12 12 12 13 13 13 13 13 13 13 13 13 13 13 12
3 5 7 7 8 8 9 9 9 10 10 10 10 10 10 10 10 10 11 11 11 11 11 12 12 12 12 12 12 12 13 12 13 13 13 13 13 12 12 12 12 13 12
5 5 6 7 8 9 9 10 10 10 11 11 10 10 10 11 11 10 11 11 11 11 10 11 11 12 12 12 12 12 14 13 13 13 12 13 13 12 12 12 13 12 12
6 6 7 7 8 8 8 9 10 10 10 11 11 11 10 10 10 10 11 12 10 11 10 11 11 11 11 12 11 12 13 12 13 13 12 13 13 12 13 13 13 12 12
7 7 8 8 8 8 8 8 9 9 9 9 9 9 9 9 10 10 11 11 11 11 10 11 11 11 12 11 12 12 13 12 12 13 12 13 12 12 13 13 13 12 12
4 6 7 8 8 7 8 8 8 8 8 9 8 8 8 9 10 10 10 11 11 11 11 11 11 11 11 11 12 12 13 13 13 13 13 13 12 12 13 12 12 12 11
3 3 5 7 7 7 7 7 8 8 8 9 8 8 8 9 10 10 10 10 10 11 11 11 11 10 11 11 11 11 12 13 13 13 13 13 13 13 13 12 12 12 11
2 3 3 4 6 5 6 7 8 9 9 8 9 10 9 9 9 10 10 10 10 10 10 10 10 10 10 10 10 10 11 11 12 13 13 13 13 12 13 13 12 12 11
1 2 3 4 4 7 7 9 9 9 9 9 9 9 8 9 9 10 10 10 10 10 10 10 10 10 10 10 10 10 10 10 11 12 12 12 12 12 12 11 11 11 11
2 3 3 4 6 6 7 7 8 9 9 9 9 9 9 9 9 9 10 10 10 10 10 10 10 10 10 10 10 10 10 10 10 10 10 10 10 11 11 10 10 10 9
3 4 5 5 6 6 7 7 7 7 7 7 7 8 8 9 9 9 9 9 9 9 10 9 10 10 10 9 9 9 9 9 9 9 9 9 9 9 9 9 9 9 9
2 3 4 5 6 6 6 7 7 6 6 6 7 7 7 7 7 7 7 7 8 9 10 9 9 9 10 9 9 9 9 8 8 8 8 8 7 7 7 7 6 6 6
3 3 3 3 4 5 6 7 6 6 6 5 5 6 6 7 7 7 7 7 7 7 7 7 7 7 7 7 7 7 7 7 7 7 7 7 6 5 5 5 5 4 4
3 4 4 4 4 5 5 4 4 4 4 5 5 5 6 6 6 6 6 7 7 7 7 7 6 6 6 6 6 6 6 5 6 6 5 5 6 6 6 6 5 4 3
3 3 3 3 3 4 5 4 3 3 3 4 4 5 5 5 5 5 5 5 5 5 5 5 5 5 4 4 4 4 4 4 4 3 3 3 3 3 3 4 4 4 3
3 3 3 3 3 3 3 3 2 3 3 3 3 3 3 3 3 4 4 4 4 3 3 3 3 3 3 2 2 2 2 2 2 2 2 2 2 2 2 2 2 2 2
3 3 3 3 3 2 2 2 2 3 2 3 3 3 3 3 3 3 3 3 3 2 3 2 2 1 1 1 1 1 1 1 1 1 1 1 1 1 1 1 0 0 1
3 3 3 2 2 2 2 2 2 2 3 2 2 2 3 2 2 3 2 2 2 1 1 1 1 0 -0 -1 -1 -1 -1 -1 -1 -1 -1 -0 -0 -0 -1 -0 -1 -1 -1
3 3 2 2 2 1 1 1 1 1 1 0 1 1 1 1 1 1 1 0 0 0 0 0 0 0 0 -1 -2 -2 -2 -2 -2 -2 -2 -2 -2 -2 -2 -2 -2 -2 -2

GFSMW_850_temp_135.txt.gz
Temp
7 7 8 8 8 8 9 10 10 10 10 10 12 12 13 14 14 13 13 14 13 14 14 14 14 14 14 14 14 14 14 13 13 12 12 12 12 13 13 13 12 12 13
6 6 6 6 7 8 8 9 10 10 10 10 10 11 12 13 14 14 13 13 13 13 14 14 14 14 14 13 13 14 14 13 13 12 12 12 12 12 12 12 12 12 13
5 4 5 5 6 7 9 9 10 10 10 10 10 10 11 11 12 13 13 13 13 13 13 13 14 14 14 14 13 14 14 14 13 12 12 12 12 13 13 12 12 12 12
5 4 4 5 6 8 8 9 10 10 10 9 10 10 10 10 11 12 13 13 13 13 13 13 13 14 14 14 13 13 14 13 13 12 12 13 14 13 13 12 13 13 13
4 4 4 5 6 7 7 9 9 9 9 9 10 10 10 10 10 11 12 13 13 12 13 13 13 14 13 14 13 12 13 13 13 13 13 12 13 13 14 14 13 13 13
3 3 4 5 6 7 7 8 8 9 9 9 9 10 10 10 10 10 11 12 13 13 12 12 12 13 13 14 13 13 12 13 12 12 12 13 13 13 13 13 14 14 13
3 3 3 5 6 7 7 8 8 9 9 9 9 9 10 10 10 11 11 11 12 11 11 12 12 12 12 14 14 13 13 13 12 13 13 13 13 13 13 13 13 14 14
2 3 4 5 6 7 8 9 9 9 9 10 10 10 9 9 8 10 11 11 12 13 12 12 12 12 13 13 13 13 12 12 12 11 13 13 13 13 12 12 13 13 13
4 6 5 6 7 8 9 9 10 10 10 10 10 9 9 9 9 9 10 11 12 12 13 11 11 12 11 12 13 12 12 12 11 12 12 12 13 13 12 12 12 12 12
5 6 6 8 8 8 9 8 9 10 9 10 10 9 9 9 9 10 10 11 11 11 11 11 11 10 12 12 12 12 12 12 11 11 12 12 13 13 13 12 12 12 12
4 5 6 7 8 8 8 8 9 9 9 10 9 9 9 10 9 10 10 10 10 11 11 11 11 10 11 11 11 11 12 11 12 11 12 13 13 13 13 12 12 12 12
3 4 6 6 7 7 7 7 7 8 9 9 9 9 9 10 9 9 9 10 9 10 11 11 12 11 10 11 11 11 12 11 11 11 11 12 13 13 13 12 12 12 13
3 3 3 4 5 6 7 7 7 7 8 8 9 9 9 9 9 10 9 10 10 10 11 11 11 11 10 10 10 10 11 11 11 11 11 12 13 13 13 13 13 13 13
2 3 3 4 5 5 6 6 7 8 8 8 8 8 8 9 9 9 10 10 10 10 10 11 11 11 11 11 10 10 11 11 11 11 11 13 13 13 13 14 13 13 13
1 2 2 3 4 4 5 6 7 5 7 6 7 7 8 8 8 8 8 10 9 10 11 10 10 10 11 11 10 10 11 10 10 10 10 11 11 11 11 11 12 12 12
1 1 2 3 3 4 5 6 6 6 7 6 6 6 7 6 7 9 9 9 10 9 10 10 9 9 10 10 10 10 10 10 9 9 9 9 10 10 10 10 11 11 11
1 1 2 3 3 5 6 6 7 6 6 4 4 6 7 8 8 8 9 9 9 9 9 10 9 10 9 9 8 9 9 9 9 9 9 9 10 10 10 10 9 9 10
2 3 3 4 4 5 6 6 6 7 7 7 7 7 8 7 9 9 9 9 9 9 9 9 9 10 9 8 8 9 9 9 9 9 9 9 9 9 9 9 9 8 8
2 3 3 3 4 5 5 6 7 6 7 6 7 7 8 8 8 8 8 8 8 8 8 7 7 8 8 9 8 8 8 8 8 9 8 8 9 8 8 8 7 6 5
3 4 4 4 5 5 5 6 5 6 5 5 6 6 6 7 7 7 7 7 7 8 8 8 7 7 7 7 8 8 7 7 7 7 7 6 6 6 5 6 7 6 6
2 3 4 4 3 4 5 5 4 4 4 5 5 6 6 6 5 6 6 6 6 6 6 7 6 6 6 6 6 6 6 6 6 5 5 4 4 4 4 4 4 4 4
3 2 3 3 3 3 4 4 4 3 3 4 4 4 5 5 4 5 5 5 5 5 5 5 5 5 4 4 4 4 4 4 4 4 3 3 3 3 3 3 2 2 3
3 2 3 3 3 3 3 3 2 2 3 3 4 4 4 4 4 4 4 4 4 4 4 4 4 3 3 3 3 3 3 2 2 2 2 2 2 2 2 1 1 1 1
3 3 2 3 3 3 3 2 2 2 2 3 3 3 3 3 3 3 3 3 3 3 3 2 2 2 2 2 2 1 0 -0 -0 -1 -1 -0 0 0 0 0 0 -0 -0
3 3 3 3 2 2 1 1 1 1 2 2 2 2 2 2 2 2 2 2 2 1 2 1 1 1 1 -0 -1 -2 -2 -2 -2 -2 -2 -2 -2 -1 -1 -1 -1 -1 -2
3 3 3 2 2 1 1 1 1 1 1 1 1 1 1 1 1 0 0 0 0 -0 -0 -0 -0 -1 -1 -1 -0 -0 -1 -1 -2 -3 -3 -3 -3 -3 -3 -2 -2 -2 -2

GFSMW_850_temp_138.txt.gz
Temp
9 8 7 6 7 8 9 10 10 11 11 12 12 12 12 13 14 14 14 14 14 14 13 14 14 14 14 13 14 14 14 13 12 12 12 11 12 13 13 13 13 13 13
9 8 8 7 6 7 8 9 10 10 10 11 11 10 10 11 12 14 14 14 13 13 13 14 14 14 14 12 13 13 13 12 12 12 13 13 12 11 12 13 13 13 13
8 8 7 7 6 5 5 8 10 10 10 10 10 10 11 10 10 12 13 14 13 13 14 13 13 13 14 13 13 13 14 13 12 12 13 13 14 14 12 13 14 14 14
7 7 7 6 6 6 5 5 8 10 10 10 10 9 8 9 10 10 11 13 13 13 13 13 13 13 14 13 14 14 14 13 12 12 12 13 13 13 13 12 13 14 14
6 6 6 6 5 5 4 5 7 8 9 9 10 10 8 9 9 10 10 10 12 13 13 13 13 13 13 13 14 14 13 13 13 13 12 11 12 12 13 13 14 14 14
5 4 5 5 5 4 4 6 7 8 8 9 9 9 8 8 9 9 10 10 11 11 13 13 13 13 13 14 14 14 13 12 13 12 12 12 12 12 12 13 13 14 15
3 3 4 4 5 5 5 7 7 8 9 9 9 8 7 7 8 9 9 10 10 10 11 12 12 13 13 13 13 13 13 12 13 13 12 12 13 13 13 12 13 13 14
3 4 5 5 5 5 6 8 9 9 9 9 9 9 9 9 8 8 8 9 10 10 10 11 12 11 12 12 13 13 13 12 13 13 12 13 13 13 13 12 12 12 12
3 4 6 6 5 5 6 8 9 9 9 9 9 9 9 10 10 8 8 8 9 10 10 12 11 11 12 12 13 12 13 12 12 13 12 12 13 13 11 12 12 12 12
3 3 5 6 6 6 7 7 8 8 9 9 9 10 10 10 10 9 8 8 9 9 9 10 10 11 12 12 11 12 12 12 11 13 12 12 12 12 12 12 11 12 12
2 3 4 5 6 6 8 8 9 8 9 9 9 9 10 10 9 9 9 8 9 9 9 10 10 10 11 11 12 12 11 12 11 11 12 12 11 11 11 10 12 12 12
2 2 3 3 5 6 7 7 7 8 9 9 9 9 9 9 8 7 9 9 8 8 9 9 9 10 10 11 11 11 11 11 11 11 11 11 11 11 11 11 11 12 12
2 2 2 2 3 4 6 6 6 7 8 8 6 9 10 9 8 8 8 9 9 9 9 9 9 9 10 10 11 11 11 11 11 11 11 11 11 10 11 11 11 12 11
1 2 2 2 3 4 5 5 5 6 7 7 7 8 8 9 7 9 8 8 8 9 9 9 9 10 10 10 10 11 11 11 10 11 11 11 11 10 10 10 11 10 9
1 1 1 2 4 5 4 4 4 5 5 6 7 7 7 7 7 7 8 8 8 9 10 10 9 10 10 10 10 11 11 11 10 11 10 10 10 9 9 10 10 10 9
1 1 2 3 3 4 5 4 3 4 5 6 5 6 7 7 8 8 8 8 8 8 9 9 9 10 10 10 10 10 10 10 10 10 10 9 9 9 9 9 9 9 9
0 2 3 3 4 3 3 5 3 3 4 5 6 5 6 6 7 7 8 7 7 8 8 8 9 9 10 9 9 10 10 10 10 9 9 9 9 9 8 8 8 8 9
3 3 3 3 4 5 4 3 5 6 6 8 6 4 4 6 6 5 4 6 7 8 9 9 10 9 9 8 8 9 9 9 10 10 9 8 8 9 8 8 9 8 9
2 3 3 4 5 5 5 5 5 5 5 5 4 3 3 3 4 4 8 8 8 7 7 7 7 8 8 8 8 8 9 9 9 8 8 8 7 8 7 7 7 7 7
3 4 4 4 5 5 5 5 6 6 6 6 6 6 6 6 7 6 6 6 6 6 6 7 7 7 7 7 7 7 7 7 7 7 7 7 6 6 6 5 5 5 5
3 3 4 4 4 3 3 4 4 4 4 5 6 6 6 6 6 6 6 6 6 6 6 6 6 5 5 5 6 6 6 6 5 5 5 5 5 5 5 4 4 4 3
4 4 4 4 4 4 4 4 4 3 3 4 4 5 5 5 5 5 5 5 5 5 5 5 4 4 4 4 4 4 4 4 4 4 3 3 3 3 3 3 2 2 2
3 3 3 3 3 3 3 3 3 3 4 4 5 5 5 5 5 5 5 5 5 5 4 4 4 4 3 3 3 4 4 3 2 2 1 1 1 1 2 2 1 1 1
3 3 3 2 2 2 2 2 2 2 2 3 3 3 4 4 4 4 4 4 4 4 4 3 3 3 3 3 3 3 3 2 2 1 0 -0 -0 -0 -1 -0 -0 -0 -0
3 3 3 2 2 2 2 2 2 2 2 2 2 2 2 2 3 3 3 2 2 2 2 1 1 1 1 1 1 0 0 0 -0 -0 -0 -1 -1 -1 -2 -2 -2 -2 -2
4 3 3 3 2 2 2 1 1 1 1 1 1 1 1 1 1 1 1 1 0 0 0 -0 -1 -1 -1 -1 -1 -1 -1 -1 -1 -1 -1 -3 -3 -3 -3 -3 -3 -3 -3